When you browse on this site, cookies collect data to enhance your experience and personalize the content and advertising you see.
Visit our Privacy Policy to learn more. By continuing to use the site, you agree to this use of cookies and data.
  • En España
  • Lista de países
  • Para 7 días
  • Temperatura del agua
  • El tiempo en el mapa
  • Informadores
  • user-avatar
    Iniciar sesión

    Tiempo cada hora Chervonyi Kut

    Hoy, 24 Agosto, Sábado

    Tiempo Temperatura Precipitaciones Viento Presión Humedad
    00:00 +22°C° 0 mm 4 mps 751 mmHg 82%
    01:00 +21°C° 0 mm 4 mps 751 mmHg 85%
    02:00 +20°C° 0 mm 3 mps 751 mmHg 88%
    03:00 +20°C° 0 mm 4 mps 752 mmHg 90%
    04:00 +20°C° 0 mm 4 mps 752 mmHg 92%
    05:00 +19°C° 0 mm 4 mps 752 mmHg 95%
    06:00 +21°C° 0 mm 4 mps 752 mmHg 88%
    07:00 +22°C° 0 mm 5 mps 752 mmHg 81%
    08:00 +23°C° 0 mm 5 mps 752 mmHg 75%
    09:00 +26°C° 0 mm 5 mps 752 mmHg 67%
    10:00 +28°C° 0 mm 5 mps 752 mmHg 60%
    11:00 +30°C° 0 mm 5 mps 752 mmHg 52%
    12:00 +32°C° 0 mm 5 mps 752 mmHg 49%
    13:00 +32°C° 0 mm 4 mps 752 mmHg 46%
    14:00 +33°C° 0 mm 4 mps 751 mmHg 43%
    15:00 +32°C° 0 mm 4 mps 751 mmHg 45%
    16:00 +32°C° 0 mm 5 mps 751 mmHg 47%
    17:00 +30°C° 0 mm 5 mps 751 mmHg 49%
    18:00 +28°C° 0 mm 5 mps 751 mmHg 55%
    19:00 +27°C° 0 mm 4 mps 751 mmHg 61%
    20:00 +25°C° 0 mm 4 mps 752 mmHg 67%
    21:00 +23°C° 0 mm 4 mps 752 mmHg 71%
    22:00 +22°C° 0 mm 4 mps 752 mmHg 75%
    23:00 +21°C° 0 mm 4 mps 751 mmHg 79%

    Mañana, 25 Agosto, Domingo

    Tiempo Temperatura Precipitaciones Viento Presión Humedad
    00:00 +21°C° 0 mm 4 mps 752 mmHg 81%
    01:00 +20°C° 0 mm 4 mps 752 mmHg 82%
    02:00 +20°C° 0 mm 4 mps 752 mmHg 83%
    03:00 +19°C° 0 mm 4 mps 752 mmHg 83%
    04:00 +19°C° 0 mm 4 mps 752 mmHg 83%
    05:00 +18°C° 0 mm 4 mps 751 mmHg 84%
    06:00 +20°C° 0 mm 4 mps 752 mmHg 76%
    07:00 +21°C° 0 mm 4 mps 752 mmHg 68%
    08:00 +23°C° 0 mm 5 mps 752 mmHg 60%
    09:00 +25°C° 0 mm 5 mps 752 mmHg 54%
    10:00 +27°C° 0 mm 4 mps 752 mmHg 49%
    11:00 +28°C° 0 mm 4 mps 752 mmHg 43%
    12:00 +29°C° 0 mm 5 mps 752 mmHg 40%
    13:00 +29°C° 0 mm 5 mps 752 mmHg 36%
    14:00 +30°C° 0 mm 5 mps 752 mmHg 32%
    15:00 +29°C° 0 mm 5 mps 752 mmHg 34%
    16:00 +28°C° 0 mm 5 mps 752 mmHg 36%
    17:00 +28°C° 0 mm 5 mps 752 mmHg 37%
    18:00 +26°C° 0 mm 4 mps 752 mmHg 43%
    19:00 +23°C° 0 mm 4 mps 752 mmHg 48%
    20:00 +21°C° 0 mm 4 mps 753 mmHg 53%
    21:00 +20°C° 0 mm 4 mps 753 mmHg 58%
    22:00 +20°C° 0 mm 4 mps 753 mmHg 64%
    23:00 +19°C° 0 mm 4 mps 753 mmHg 69%

    Pasado mañana, 26 Agosto, Lunes

    Tiempo Temperatura Precipitaciones Viento Presión Humedad
    00:00 +19°C° 0 mm 4 mps 753 mmHg 71%
    01:00 +18°C° 0 mm 4 mps 753 mmHg 74%
    02:00 +18°C° 0 mm 4 mps 753 mmHg 76%
    03:00 +17°C° 0 mm 4 mps 754 mmHg 75%
    04:00 +17°C° 0 mm 4 mps 754 mmHg 75%
    05:00 +15°C° 0 mm 4 mps 754 mmHg 74%
    06:00 +18°C° 0 mm 4 mps 754 mmHg 69%
    07:00 +19°C° 0 mm 4 mps 754 mmHg 64%
    08:00 +21°C° 0 mm 5 mps 754 mmHg 59%
    09:00 +22°C° 0 mm 5 mps 754 mmHg 53%
    10:00 +25°C° 0 mm 5 mps 754 mmHg 48%
    11:00 +27°C° 0 mm 5 mps 754 mmHg 43%
    12:00 +27°C° 0 mm 5 mps 754 mmHg 40%
    13:00 +28°C° 0 mm 5 mps 754 mmHg 38%
    14:00 +28°C° 0 mm 5 mps 753 mmHg 35%
    15:00 +27°C° 0 mm 4 mps 753 mmHg 36%
    16:00 +27°C° 0 mm 4 mps 753 mmHg 37%
    17:00 +26°C° 0 mm 4 mps 753 mmHg 38%
    18:00 +23°C° 0 mm 4 mps 753 mmHg 43%
    19:00 +21°C° 0 mm 3 mps 753 mmHg 48%
    20:00 +19°C° 0 mm 3 mps 753 mmHg 53%
    21:00 +18°C° 0 mm 3 mps 753 mmHg 55%
    22:00 +18°C° 0 mm 3 mps 753 mmHg 57%
    23:00 +17°C° 0 mm 3 mps 753 mmHg 59%

    27 Agosto, Martes

    Tiempo Temperatura Precipitaciones Viento Presión Humedad
    00:00 +16°C° 0 mm 3 mps 753 mmHg 60%
    01:00 +16°C° 0 mm 3 mps 752 mmHg 62%
    02:00 +14°C° 0 mm 3 mps 752 mmHg 64%
    03:00 +14°C° 0 mm 3 mps 752 mmHg 66%
    04:00 +13°C° 0 mm 3 mps 752 mmHg 68%
    05:00 +13°C° 0 mm 3 mps 752 mmHg 70%
    06:00 +16°C° 0 mm 3 mps 752 mmHg 63%
    07:00 +19°C° 0 mm 3 mps 752 mmHg 56%
    08:00 +21°C° 0 mm 3 mps 752 mmHg 49%
    09:00 +22°C° 0 mm 3 mps 752 mmHg 44%
    10:00 +25°C° 0 mm 3 mps 752 mmHg 38%
    11:00 +26°C° 0 mm 3 mps 751 mmHg 33%
    12:00 +27°C° 0 mm 3 mps 751 mmHg 31%
    13:00 +27°C° 0 mm 3 mps 751 mmHg 28%
    14:00 +28°C° 0 mm 3 mps 750 mmHg 26%
    15:00 +28°C° 0 mm 3 mps 750 mmHg 28%
    16:00 +27°C° 0 mm 3 mps 750 mmHg 30%
    17:00 +27°C° 0 mm 3 mps 750 mmHg 32%
    18:00 +25°C° 0 mm 3 mps 750 mmHg 36%
    19:00 +21°C° 0 mm 3 mps 749 mmHg 41%
    20:00 +19°C° 0 mm 3 mps 749 mmHg 45%
    21:00 +18°C° 0 mm 3 mps 749 mmHg 50%
    22:00 +18°C° 0 mm 2 mps 749 mmHg 54%
    23:00 +17°C° 0 mm 2 mps 749 mmHg 59%

    28 Agosto, Miércoles

    Tiempo Temperatura Precipitaciones Viento Presión Humedad
    00:00 +17°C° 0 mm 3 mps 749 mmHg 64%
    01:00 +17°C° 0 mm 3 mps 749 mmHg 69%
    02:00 +16°C° 0 mm 3 mps 749 mmHg 74%
    03:00 +16°C° 0 mm 3 mps 749 mmHg 80%
    04:00 +14°C° 0 mm 3 mps 750 mmHg 86%
    05:00 +14°C° 0 mm 3 mps 750 mmHg 91%
    06:00 +15°C° 0 mm 4 mps 750 mmHg 81%
    07:00 +18°C° 0 mm 4 mps 750 mmHg 72%
    08:00 +19°C° 0 mm 5 mps 751 mmHg 62%
    09:00 +20°C° 0 mm 5 mps 751 mmHg 55%
    10:00 +21°C° 0 mm 5 mps 751 mmHg 49%
    11:00 +22°C° 0 mm 5 mps 751 mmHg 42%
    12:00 +23°C° 0 mm 5 mps 751 mmHg 37%
    13:00 +23°C° 0 mm 5 mps 751 mmHg 31%
    14:00 +23°C° 0 mm 5 mps 751 mmHg 25%
    15:00 +22°C° 0 mm 5 mps 751 mmHg 26%
    16:00 +22°C° 0 mm 5 mps 751 mmHg 28%
    17:00 +21°C° 0 mm 5 mps 751 mmHg 29%
    18:00 +19°C° 0 mm 4 mps 751 mmHg 34%
    19:00 +17°C° 0 mm 4 mps 751 mmHg 39%
    20:00 +14°C° 0 mm 4 mps 752 mmHg 44%
    21:00 +13°C° 0 mm 3 mps 752 mmHg 48%
    22:00 +12°C° 0 mm 3 mps 752 mmHg 53%
    23:00 +11°C° 0 mm 3 mps 752 mmHg 57%

    29 Agosto, Jueves

    Tiempo Temperatura Precipitaciones Viento Presión Humedad
    00:00 +11°C° 0 mm 3 mps 752 mmHg 59%
    01:00 +10°C° 0 mm 3 mps 752 mmHg 62%
    02:00 +9°C° 0 mm 3 mps 753 mmHg 64%
    03:00 +9°C° 0 mm 3 mps 753 mmHg 66%
    04:00 +8°C° 0 mm 3 mps 753 mmHg 68%
    05:00 +8°C° 0 mm 3 mps 753 mmHg 70%
    06:00 +10°C° 0 mm 3 mps 753 mmHg 63%
    07:00 +11°C° 0 mm 3 mps 753 mmHg 56%
    08:00 +13°C° 0 mm 4 mps 753 mmHg 49%
    09:00 +15°C° 0 mm 4 mps 753 mmHg 44%
    10:00 +17°C° 0 mm 4 mps 753 mmHg 39%
    11:00 +18°C° 0 mm 3 mps 753 mmHg 34%
    12:00 +19°C° 0 mm 3 mps 753 mmHg 32%
    13:00 +20°C° 0 mm 4 mps 752 mmHg 30%
    14:00 +21°C° 0 mm 4 mps 752 mmHg 28%
    15:00 +21°C° 0 mm 4 mps 752 mmHg 29%
    16:00 +20°C° 0 mm 4 mps 751 mmHg 31%
    17:00 +20°C° 0 mm 4 mps 751 mmHg 32%
    18:00 +18°C° 0 mm 3 mps 751 mmHg 37%
    19:00 +16°C° 0 mm 3 mps 751 mmHg 41%
    20:00 +13°C° 0 mm 3 mps 751 mmHg 45%
    21:00 +12°C° 0 mm 3 mps 752 mmHg 48%
    22:00 +12°C° 0 mm 3 mps 752 mmHg 52%
    23:00 +11°C° 0 mm 3 mps 752 mmHg 55%
    Mostrar más